Regional Weather Roundup
Issued by NWS

Home | Current Version | Previous Version | Text Only | Print | Product List | Glossary Off
Versions: 1 2 3 4 5 6 7 8 9 10 11 12 13 14 15 16 17 18 19 20 21 22 23 24 25 26 27 28 29 30 31 32 33 34 35 36 37 38 39 40 41 42 43 44 45 46 47 48 49 50

000
ASUS43 KTOP 300359
RWRKS

WEATHER ROUNDUP FOR KANSAS
NATIONAL WEATHER SERVICE GOODLAND KS
1100 PM CDT THU SEP 29 2016

NOTE:  "FAIR" INDICATES FEW OR NO CLOUDS BELOW 12,000 FEET WITH NO
SIGNIFICANT WEATHER AND/OR OBSTRUCTIONS TO VISIBILITY.

KSZ001>006-013>018-027>032-041>047-300500-
NORTHWEST KANSAS

CITY           SKY/WX    TMP DP  RH WIND       PRES   REMARKS
GOODLAND       CLEAR     55  38  52 SE12      30.29S
HAYS           CLEAR     52  37  58 SE8       30.33S
HILL CITY      CLEAR     49  44  83 E5        30.33S
RUSSELL        CLEAR     53  47  79 SE10      30.32S
$$

KSZ061>065-074>080-084>089-300500-
SOUTHWEST KANSAS

CITY           SKY/WX    TMP DP  RH WIND       PRES   REMARKS
DODGE CITY     PTCLDY    53  43  68 SE7       30.33S
ELKHART          N/A     57  40  53 MISG        N/A
GARDEN CITY    CLOUDY    55  40  56 SE9       30.31S
GREAT BEND     CLEAR     55  41  58 E5        30.33S
LIBERAL        CLEAR     59  37  44 SE9       30.31F
$$

KSZ066>073-081>083-090>101-300500-
SOUTHEAST KANSAS

CITY           SKY/WX    TMP DP  RH WIND       PRES   REMARKS
CHANUTE        CLEAR     54  49  83 N6        30.29F
COFFEYVILLE    CLEAR     55  49  80 NW3       30.29S
HUTCHINSON     CLEAR     51  47  86 CALM      30.33S
MEDICINE LODGE   N/A     55  48  77 E5        30.32S
NEWTON           N/A     57  49  74 NE6       30.33S
PARSONS        CLEAR     51  48  89 CALM      30.30S
WICHITA INTL   CLEAR     56  51  84 N3        30.32R
WICHITA JABRA  CLEAR     55  51  86 N5        30.32R
WINFIELD       CLEAR     56  51  84 CALM      30.32S
$$

KSZ007>012-019>026-033>040-048>060-102>105-300500-
NORTHEAST KANSAS

CITY           SKY/WX    TMP DP  RH WIND       PRES   REMARKS
CONCORDIA      CLEAR     56  48  74 CALM      30.33S
EMPORIA        CLEAR     54  50  86 NW5       30.31S
LAWRENCE       CLEAR     51  50  96 NW6       30.31S
MANHATTAN      CLEAR     50  48  93 CALM      30.32S
OLATHE IND     CLEAR     54  50  86 NW5       30.31S
OLATHE EXE     CLEAR     58  48  69 N5        30.30S
SALINA         CLEAR     56  49  77 CALM      30.33S
TOPEKA BILLARD CLEAR     54  50  86 CALM      30.31S
TOPEKA FORBES  CLEAR     53  50  89 NW3       30.31S
$$




USA.gov is the U.S. government's official web portal to all federal, state and local government web resources and services.